Location: Stanford
(52.2833°N, 2.4333°W)
Time: 23:57:31
(UTC+00:00)

CZ-4C R/B - Pass Details

Date: 22 January 2021
Orbit: 617 x 1385 km, 63.4° (Epoch: 01 March)

Event Time Altitude Azimuth Distance (km) Brightness Sun altitude
Rises 20:03:48 0° 292° (WNW) 3,406 6.4 -30.9°
Reaches altitude 10° 20:06:23 10° 303° (WNW) 2,584 5.5 -31.2°
Enters shadow 20:11:44 32° 4° (N) 1,698 3.7 -32.0°
